Americo Brasiliense, Brazil
Current Conditions -  °F | °C
As of 4:00 AM on Wednesday 22 Oct 2014 (Local Time) from SBRP Reporting Station
Clear Clear  
Wind Chill: 66°   Ceiling: Unl
Heat Index: 66°   Visibility: 6mi
Dew Point: 55°   Wind: 8mph
Humidity: 68%   Direction: 140°SE
Pressure: 29.97"   Gusts: NA
Location:  21.72°S, 48.1°W
Report Text: SBRP 220600Z 14007KT CAVOK 19/13 Q1015
Loading
Personal Weather Stations






























Interactive Weather Map
Tropical Storm Tracking
New forecast layout! Learn more

10-Day Weather Forecast

Advertisements
Track Severe Weather on mobile